Regional Weather Roundup
Issued by NWS Sterling, VA

Home | Current Version | Previous Version | Graphics & Text | Print | Product List | Glossary On
Versions: 1 2 3 4 5 6 7 8 9 10 11 12 13 14 15 16 17 18 19 20 21 22 23 24 25 26 27 28
000
ASUS41 KLWX 180711
RWRLWX

REGIONAL WEATHER ROUNDUP
NATIONAL WEATHER SERVICE BALTIMORE MD/WASHINGTON DC
300 AM EDT FRI AUG 18 2017

Note: "FAIR" indicates few or no clouds below 12,000 feet
with no significant weather and/or obstructions to visibility.
 TC=TEMPERATURE CELSIUS

 * =Non NWS site. Station does not report precipitation (e.g. rain,
    snow, etc.), thunder, or fog.

DCZ001-MDZ009-015-VAZ040>042-051-053>054-180800-
WASHINGTON METRO

CITY           SKY/WX    TMP DP  RH WIND       PRES   REMARKS
WASHINGTON NAT PTCLDY    79  75  87 S8        29.89S
DULLES         MOCLDY    77  75  93 S9        29.88F
ANDREWS AFB    MOCLDY    74  72  92 S7        29.89S
FT BELVOIR     PTCLDY    76  73  92 SE3       29.88F
QUANTICO       PTCLDY    79  76  90 SW5       29.89S
COLLEGE PARK*  MOCLDY    77  72  85 CALM      29.88S
LEESBURG*      MOCLDY    77  77 100 S6        29.89F
MANASSAS*      PTCLDY    75  74  96 SE3       29.89S
GAITHERSBURG*  MOCLDY    76  73  91 SE3       29.90F

$$

MDZ006>007-011-014-180800-
BALTIMORE METRO

CITY           SKY/WX    TMP DP  RH WIND       PRES   REMARKS
BWI AIRPORT    MOCLDY    75  73  93 CALM      29.88F
MD SCIENCE CTR   N/A     79  73  82 MISG      29.88F
MARTIN STATE   CLOUDY    79  77  94 S5        29.90S
ANNAPOLIS      CLOUDY    79  78  97 S9G21     29.87F
FORT MEADE*    CLOUDY    72  70  94 CALM      29.91S

$$

MDZ012-015-019>023-180800-
MARYLAND EASTERN SHORE

CITY           SKY/WX    TMP DP  RH WIND       PRES   REMARKS
OCEAN CITY     CLEAR     77  75  93 VRB6      29.94F
SALISBURY      CLEAR     75  75 100 S6        29.92F
BAY BRIDGE AP* MOCLDY    79  75  89 S8        29.89S
CAMBRIDGE*     PTCLDY    75  73  94 S6        29.90F
EASTON*        PTCLDY    76  73  88 S6        29.93F

$$

MDZ017>025-180800-
SOUTHERN MARYLAND

CITY           SKY/WX    TMP DP  RH WIND       PRES   REMARKS
PATUXENT RIVER CLEAR     78  75  90 SW7       29.89S
ST INIGOES     PTCLDY    78  75  90 S6        29.90S
LEONARDTOWN*   PTCLDY    75  72  88 S3        29.92S

$$

MDZ003>005-180800-
NORTH CENTRAL MARYLAND

CITY           SKY/WX    TMP DP  RH WIND       PRES   REMARKS
FREDERICK*     CLOUDY    79  79 100 S3        29.90F
HAGERSTOWN APT CLOUDY    76  73  91 S3        29.88F
WESTMINSTER*   CLOUDY    75  73  94 SE5       29.90F

$$

MDZ501>502-180800-
WESTERN MARYLAND

CITY           SKY/WX    TMP DP  RH WIND       PRES   REMARKS
OAKLAND*       CLOUDY    68  68 100 SW9       29.95F
CUMBERLAND*    CLOUDY    73  73 100 CALM      29.91F VSB<1/4

$$

VAZ025>031-180800-
SHENANDOAH VALLEY

CITY           SKY/WX    TMP DP  RH WIND       PRES   REMARKS
WINCHESTER*    CLOUDY    72  72 100 S3        29.88F
FRONT ROYAL*   PTCLDY    73  73 100 CALM      29.88S
LURAY*         CLEAR     75  73  94 S3        29.91S
NEW MARKET*    CLEAR     73  71  92 CALM      29.90S
STAUNTON*      CLEAR     71  70  96 CALM      29.95S
WAYNESBORO*    CLEAR     73  73 100 S6        29.95S

$$

WVZ021-048>050-054>055-180800-
EASTERN WEST VIRGINIA PANHANDLE

CITY           SKY/WX    TMP DP  RH WIND       PRES   REMARKS
MARTINSBURG    MOCLDY    74  72  93 S5        29.87F
PETERSBURG*    CLEAR     71  71  98 NW3       29.90F FOG

$$

VAZ036>039-050-180800-
CENTRAL FOOTHILLS

CITY           SKY/WX    TMP DP  RH WIND       PRES   REMARKS
CHARLOTTESVILL PTCLDY    77  75  93 S5        29.90F FOG
CULPEPER*      PTCLDY    77  76  98 CALM      29.89F
ORANGE*        PTCLDY    73  73 100 CALM      29.90S FOG
GORDONSVILLE*  PTCLDY    74  74 100 CALM      29.90S FOG
WARRENTON*     PTCLDY    77  73  87 CALM      29.88F

$$

VAZ055>057-180800-
NORTH AND CENTRAL PIEDMONT

CITY           SKY/WX    TMP DP  RH WIND       PRES   REMARKS
FREDERICKSBRG* MOCLDY    76  76 100 S3        29.88F
STAFFORD*      PTCLDY    74  74 100 CALM      29.93F

$$

NCZ024-NYZ072-PAZ021-071-VAZ022-071-180800-
OTHER REGIONAL OBSERVATIONS

CITY           SKY/WX    TMP DP  RH WIND       PRES   REMARKS
NEW YORK CITY  MOCLDY    76  72  87 CALM      29.94F
PHILADELPHIA   CLOUDY    76  69  79 S6        29.91F
PITTSBURGH     LGT RAIN  73  71  93 S10       29.86F
ROANOKE        PTCLDY    76  73  91 CALM      29.98S
RICHMOND       PTCLDY    76  75  97 S7        29.91F
RALEIGH        PTCLDY    77  74  90 S3        29.94F

$$

ANZ530>537-180800-
MARINE OBSERVATIONS

STATION/POSITION TIME  TEMP    WIND        PRES
                       AIR SEA DIR/SP/G
                 (UTC) (F)     (DEG/KT/KT) (MB)
THOMAS PT LIGHT  0700   79 80  190/ 17/ 19   N/A
BALT KEY BRIDGE  0648          190/  5/  7 1011.8R
COVE POINT       0648          210/ 10/ 12 1012.9F
LEWISETTA        0648          220/ 11/ 14 1012.2F
SOLOMONS ISLAND  0636          200/  9/ 11   N/A
PINEY POINT      0642          230/  9/ 11   N/A

$$





USA.gov is the U.S. government's official web portal to all federal, state and local government web resources and services.